StationID,Date,MaxTemp,MinTemp,Precipitation,Snowfall,SnowDepth
"UKE00105669","2000-12-31",48.74,,,,
"UKE00105669","2001-01-01",44.24,34.70,132.00,,
"UKE00105669","2001-01-02",46.22,40.46,109.00,,
"UKE00105669","2001-01-03",45.14,33.44,43.00,,
"UKE00105669","2001-01-04",42.26,37.04,17.00,,
"UKE00105669","2001-01-05",43.52,35.24,16.00,,
"UKE00105669","2001-01-06",41.18,33.62,72.00,,
"UKE00105669","2001-01-07",40.82,35.78,107.00,,
"UKE00105669","2001-01-08",38.12,35.06,0.00,,
"UKE00105669","2001-01-09",37.22,29.48,0.00,,
"UKE00105669","2001-01-10",37.76,31.64,0.00,,
"UKE00105669","2001-01-11",39.56,32.54,0.00,,
"UKE00105669","2001-01-12",42.44,33.26,0.00,,
"UKE00105669","2001-01-13",42.62,32.18,0.00,,
"UKE00105669","2001-01-14",33.98,32.00,0.00,,
"UKE00105669","2001-01-15",32.00,28.40,0.00,,
"UKE00105669","2001-01-16",34.88,28.40,0.00,,
"UKE00105669","2001-01-17",39.02,26.42,0.00,,
"UKE00105669","2001-01-18",39.38,27.50,0.00,,
"UKE00105669","2001-01-19",40.28,26.42,0.00,,
"UKE00105669","2001-01-20",45.50,20.84,70.00,,
"UKE00105669","2001-01-21",45.86,23.72,28.00,,
"UKE00105669","2001-01-22",49.28,33.98,90.00,,
"UKE00105669","2001-01-23",43.52,39.74,223.00,,
"UKE00105669","2001-01-24",42.62,37.04,67.00,,
"UKE00105669","2001-01-25",43.52,34.34,37.00,,
"UKE00105669","2001-01-26",41.72,34.52,24.00,,
"UKE00105669","2001-01-27",39.20,32.72,0.00,,
"UKE00105669","2001-01-28",42.98,26.78,10.00,,
"UKE00105669","2001-01-29",44.42,29.84,44.00,,
"UKE00105669","2001-01-30",44.78,30.74,78.00,,
"UKE00105669","2001-01-31",42.62,39.74,0.00,,
"UKE00105669","2001-02-01",45.32,33.08,55.00,,
"UKE00105669","2001-02-02",46.04,35.78,152.00,,
"UKE00105669","2001-02-03",47.12,39.74,261.00,,
"UKE00105669","2001-02-04",49.28,35.96,97.00,,
"UKE00105669","2001-02-05",46.58,40.28,36.00,,
"UKE00105669","2001-02-06",48.92,40.28,45.00,,
"UKE00105669","2001-02-07",38.48,41.90,22.00,,
"UKE00105669","2001-02-08",42.98,31.82,0.00,,
"UKE00105669","2001-02-09",50.18,23.90,4.00,,
"UKE00105669","2001-02-10",49.82,28.22,224.00,,
"UKE00105669","2001-02-11",49.64,39.92,373.00,,
"UKE00105669","2001-02-12",47.84,36.68,28.00,,
"UKE00105669","2001-02-13",51.44,26.96,0.00,,
"UKE00105669","2001-02-14",45.68,26.42,0.00,,
"UKE00105669","2001-02-15",45.68,28.22,7.00,,
"UKE00105669","2001-02-16",47.12,30.74,0.00,,
"UKE00105669","2001-02-17",42.62,23.36,0.00,,
"UKE00105669","2001-02-18",40.82,23.72,0.00,,
"UKE00105669","2001-02-19",44.96,26.78,15.00,,
"UKE00105669","2001-02-20",45.32,29.84,26.00,,
"UKE00105669","2001-02-21",44.78,32.36,84.00,,
"UKE00105669","2001-02-22",40.64,41.54,37.00,,
"UKE00105669","2001-02-23",40.28,34.16,8.00,,
"UKE00105669","2001-02-24",37.94,27.68,11.00,,
"UKE00105669","2001-02-25",36.14,19.76,41.00,,
"UKE00105669","2001-02-26",37.22,29.84,31.00,,
"UKE00105669","2001-02-27",34.34,25.16,10.00,,
"UKE00105669","2001-02-28",37.22,30.56,0.00,,
"UKE00105669","2001-03-01",34.34,22.28,0.00,,
"UKE00105669","2001-03-02",36.32,22.46,0.00,,
"UKE00105669","2001-03-03",40.82,23.72,0.00,,
"UKE00105669","2001-03-04",43.52,24.62,0.00,,
"UKE00105669","2001-03-05",50.18,21.38,0.00,,
"UKE00105669","2001-03-06",54.14,31.46,117.00,,
"UKE00105669","2001-03-07",53.42,37.04,8.00,,
"UKE00105669","2001-03-08",51.44,44.06,16.00,,
"UKE00105669","2001-03-09",49.64,43.52,131.00,,
"UKE00105669","2001-03-10",49.46,44.78,60.00,,
"UKE00105669","2001-03-11",42.44,44.96,9.00,,
"UKE00105669","2001-03-12",46.22,34.16,180.00,,
"UKE00105669","2001-03-13",44.60,32.72,8.00,,
"UKE00105669","2001-03-14",42.08,38.30,10.00,,
"UKE00105669","2001-03-15",41.72,26.60,85.00,,
"UKE00105669","2001-03-16",36.32,37.22,38.00,,
"UKE00105669","2001-03-17",38.30,31.28,77.00,,
"UKE00105669","2001-03-18",38.48,30.02,0.00,,
"UKE00105669","2001-03-19",40.10,25.70,2.00,,
"UKE00105669","2001-03-20",43.16,29.12,8.00,,
"UKE00105669","2001-03-21",49.64,31.28,139.00,,
"UKE00105669","2001-03-22",48.20,31.82,52.00,,
"UKE00105669","2001-03-23",49.28,41.18,19.00,,
"UKE00105669","2001-03-24",46.22,41.00,0.00,,
"UKE00105669","2001-03-25",42.08,36.32,0.00,,
"UKE00105669","2001-03-26",43.16,35.06,30.00,,
"UKE00105669","2001-03-27",48.74,35.96,54.00,,
"UKE00105669","2001-03-28",44.96,36.50,6.00,,
"UKE00105669","2001-03-29",49.46,31.28,27.00,,
"UKE00105669","2001-03-30",56.12,37.04,26.00,,
"UKE00105669","2001-03-31",57.56,41.00,51.00,,
"UKE00105669","2001-04-01",55.76,40.64,41.00,,
"UKE00105669","2001-04-02",49.28,46.58,49.00,,
"UKE00105669","2001-04-03",45.14,37.04,313.00,,
"UKE00105669","2001-04-04",49.28,33.26,27.00,,
"UKE00105669","2001-04-05",49.64,36.32,119.00,,
"UKE00105669","2001-04-06",48.92,39.56,44.00,,
"UKE00105669","2001-04-07",49.10,37.22,19.00,,
"UKE00105669","2001-04-08",52.34,36.68,227.00,,
"UKE00105669","2001-04-09",48.74,39.38,100.00,,
"UKE00105669","2001-04-10",50.54,41.72,11.00,,
"UKE00105669","2001-04-11",49.46,32.54,0.00,,
"UKE00105669","2001-04-12",45.86,31.82,1.00,,
"UKE00105669","2001-04-13",49.46,39.20,23.00,,
"UKE00105669","2001-04-14",46.94,38.84,284.00,,
"UKE00105669","2001-04-15",51.26,42.98,7.00,,
"UKE00105669","2001-04-16",45.32,30.74,0.00,,
"UKE00105669","2001-04-17",45.32,27.50,87.00,,
"UKE00105669","2001-04-18",45.32,32.54,1.00,,
"UKE00105669","2001-04-19",45.50,27.32,2.00,,
"UKE00105669","2001-04-20",48.92,26.78,0.00,,
"UKE00105669","2001-04-21",47.84,27.14,80.00,,
"UKE00105669","2001-04-22",51.62,38.30,131.00,,
"UKE00105669","2001-04-23",45.50,38.12,9.00,,
"UKE00105669","2001-04-24",49.28,35.96,85.00,,
"UKE00105669","2001-04-25",52.52,39.74,15.00,,
"UKE00105669","2001-04-26",51.62,42.26,0.00,,
"UKE00105669","2001-04-27",47.66,31.28,102.00,,
"UKE00105669","2001-04-28",46.58,39.74,89.00,,
"UKE00105669","2001-04-29",53.06,34.88,7.00,,
"UKE00105669","2001-04-30",58.82,27.86,0.00,,
"UKE00105669","2001-05-01",60.08,34.52,0.00,,
"UKE00105669","2001-05-02",55.22,38.48,0.00,,
"UKE00105669","2001-05-03",55.04,39.92,0.00,,
"UKE00105669","2001-05-04",57.92,32.36,0.00,,
"UKE00105669","2001-05-05",52.88,31.28,0.00,,
"UKE00105669","2001-05-06",57.56,34.88,0.00,,
"UKE00105669","2001-05-07",57.56,33.44,0.00,,
"UKE00105669","2001-05-08",57.38,34.34,0.00,,
"UKE00105669","2001-05-09",64.58,34.16,17.00,,
"UKE00105669","2001-05-10",68.54,40.28,31.00,,
"UKE00105669","2001-05-11",73.40,53.78,0.00,,
"UKE00105669","2001-05-12",73.22,54.14,0.00,,
"UKE00105669","2001-05-13",61.34,50.54,48.00,,
"UKE00105669","2001-05-14",60.44,43.88,13.00,,
"UKE00105669","2001-05-15",60.62,45.68,10.00,,
"UKE00105669","2001-05-16",55.40,46.58,501.00,,
"UKE00105669","2001-05-17",54.32,41.36,71.00,,
"UKE00105669","2001-05-18",54.32,42.26,0.00,,
"UKE00105669","2001-05-19",61.52,45.86,0.00,,
"UKE00105669","2001-05-20",66.38,38.66,0.00,,
"UKE00105669","2001-05-21",66.92,42.44,0.00,,
"UKE00105669","2001-05-22",72.68,44.42,0.00,,
"UKE00105669","2001-05-23",71.78,50.90,0.00,,
"UKE00105669","2001-05-24",68.00,50.54,0.00,,
"UKE00105669","2001-05-25",63.14,49.10,16.00,,
"UKE00105669","2001-05-26",58.64,48.74,68.00,,
"UKE00105669","2001-05-27",60.26,51.80,32.00,,
"UKE00105669","2001-05-28",61.34,55.40,6.00,,
"UKE00105669","2001-05-29",61.16,51.08,0.00,,
"UKE00105669","2001-05-30",55.22,46.04,5.00,,
"UKE00105669","2001-05-31",54.14,46.58,22.00,,
"UKE00105669","2001-06-01",54.68,46.58,47.00,,
"UKE00105669","2001-06-02",54.32,47.84,2.00,,
"UKE00105669","2001-06-03",58.28,34.16,0.00,,
"UKE00105669","2001-06-04",61.88,41.36,0.00,,
"UKE00105669","2001-06-05",52.88,40.46,67.00,,
"UKE00105669","2001-06-06",51.98,48.56,45.00,,
"UKE00105669","2001-06-07",53.42,41.72,8.00,,
"UKE00105669","2001-06-08",55.04,36.32,0.00,,
"UKE00105669","2001-06-09",58.28,38.12,46.00,,
"UKE00105669","2001-06-10",55.76,37.04,1.00,,
"UKE00105669","2001-06-11",59.54,38.66,0.00,,
"UKE00105669","2001-06-12",62.60,45.32,0.00,,
"UKE00105669","2001-06-13",64.40,43.52,0.00,,
"UKE00105669","2001-06-14",64.40,42.62,76.00,,
"UKE00105669","2001-06-15",61.88,51.62,138.00,,
"UKE00105669","2001-06-16",57.56,50.90,3.00,,
"UKE00105669","2001-06-17",60.62,48.20,0.00,,
"UKE00105669","2001-06-18",66.74,35.96,17.00,,
"UKE00105669","2001-06-19",60.08,51.26,71.00,,
"UKE00105669","2001-06-20",57.02,49.82,6.00,,
"UKE00105669","2001-06-21",68.18,48.38,0.00,,
"UKE00105669","2001-06-22",68.90,39.56,0.00,,
"UKE00105669","2001-06-23",70.70,49.82,0.00,,
"UKE00105669","2001-06-24",75.56,44.96,0.00,,
"UKE00105669","2001-06-25",82.76,48.02,1.00,,
"UKE00105669","2001-06-26",61.88,56.84,7.00,,
"UKE00105669","2001-06-27",64.22,56.48,31.00,,
"UKE00105669","2001-06-28",65.48,53.78,27.00,,
"UKE00105669","2001-06-29",62.60,56.66,39.00,,
"UKE00105669","2001-06-30",72.68,54.68,11.00,,
"UKE00105669","2001-07-01",75.02,53.24,7.00,,
"UKE00105669","2001-07-02",77.90,50.72,0.00,,
"UKE00105669","2001-07-03",75.02,53.42,304.00,,
"UKE00105669","2001-07-04",77.00,59.00,239.00,,
"UKE00105669","2001-07-05",69.62,56.84,1.00,,
"UKE00105669","2001-07-06",62.24,60.80,52.00,,
"UKE00105669","2001-07-07",58.28,60.80,12.00,,
"UKE00105669","2001-07-08",62.96,53.24,2.00,,
"UKE00105669","2001-07-09",58.46,51.08,27.00,,
"UKE00105669","2001-07-10",59.90,51.80,162.00,,
"UKE00105669","2001-07-11",60.08,50.72,8.00,,
"UKE00105669","2001-07-12",59.00,49.28,227.00,,
"UKE00105669","2001-07-13",58.10,51.62,13.00,,
"UKE00105669","2001-07-14",57.92,40.82,16.00,,
"UKE00105669","2001-07-15",64.22,44.24,1.00,,
"UKE00105669","2001-07-16",58.64,37.04,0.00,,
"UKE00105669","2001-07-17",57.02,47.48,264.00,,
"UKE00105669","2001-07-18",59.18,52.52,21.00,,
"UKE00105669","2001-07-19",61.16,41.18,1.00,,
"UKE00105669","2001-07-20",60.26,40.10,112.00,,
"UKE00105669","2001-07-21",60.80,53.60,36.00,,
"UKE00105669","2001-07-22",60.44,55.40,2.00,,
"UKE00105669","2001-07-23",66.74,50.36,0.00,,
"UKE00105669","2001-07-24",69.26,53.06,0.00,,
"UKE00105669","2001-07-25",68.90,47.48,0.00,,
"UKE00105669","2001-07-26",76.82,48.56,0.00,,
"UKE00105669","2001-07-27",78.44,48.92,0.00,,
"UKE00105669","2001-07-28",71.78,54.68,0.00,,
"UKE00105669","2001-07-29",69.26,57.92,2.00,,
"UKE00105669","2001-07-30",65.12,58.10,44.00,,
"UKE00105669","2001-07-31",73.22,57.56,0.00,,
"UKE00105669","2001-08-01",61.88,51.26,6.00,,
"UKE00105669","2001-08-02",60.08,54.32,113.00,,
"UKE00105669","2001-08-03",61.70,51.80,11.00,,
"UKE00105669","2001-08-04",64.04,48.92,37.00,,
"UKE00105669","2001-08-05",60.08,50.90,82.00,,
"UKE00105669","2001-08-06",66.02,53.06,61.00,,
"UKE00105669","2001-08-07",57.92,53.06,225.00,,
"UKE00105669","2001-08-08",59.00,51.98,18.00,,
"UKE00105669","2001-08-09",62.24,44.78,2.00,,
"UKE00105669","2001-08-10",61.16,44.24,41.00,,
"UKE00105669","2001-08-11",62.96,50.36,358.00,,
"UKE00105669","2001-08-12",63.68,58.28,109.00,,
"UKE00105669","2001-08-13",70.52,57.74,1.00,,
"UKE00105669","2001-08-14",70.34,59.72,0.00,,
"UKE00105669","2001-08-15",62.96,56.66,150.00,,
"UKE00105669","2001-08-16",65.66,54.32,109.00,,
"UKE00105669","2001-08-17",64.40,50.00,6.00,,
"UKE00105669","2001-08-18",62.60,54.86,187.00,,
"UKE00105669","2001-08-19",63.32,53.60,19.00,,
"UKE00105669","2001-08-20",65.48,51.62,1.00,,
"UKE00105669","2001-08-21",68.18,49.46,23.00,,
"UKE00105669","2001-08-22",70.16,52.52,29.00,,
"UKE00105669","2001-08-23",62.96,50.54,10.00,,
"UKE00105669","2001-08-24",72.68,56.84,54.00,,
"UKE00105669","2001-08-25",67.82,56.48,0.00,,
"UKE00105669","2001-08-26",68.00,51.44,1.00,,
"UKE00105669","2001-08-27",69.98,42.62,0.00,,
"UKE00105669","2001-08-28",69.98,42.44,0.00,,
"UKE00105669","2001-08-29",58.82,46.22,15.00,,
"UKE00105669","2001-08-30",60.62,46.22,55.00,,
"UKE00105669","2001-08-31",61.52,51.62,3.00,,
"UKE00105669","2001-09-01",59.72,45.14,94.00,,
"UKE00105669","2001-09-02",56.66,51.98,142.00,,
"UKE00105669","2001-09-03",59.72,50.54,63.00,,
"UKE00105669","2001-09-04",60.08,44.24,0.00,,
"UKE00105669","2001-09-05",58.82,47.12,240.00,,
"UKE00105669","2001-09-06",62.06,45.32,0.00,,
"UKE00105669","2001-09-07",58.64,47.84,241.00,,
"UKE00105669","2001-09-08",56.84,51.44,2.00,,
"UKE00105669","2001-09-09",58.64,44.42,0.00,,
"UKE00105669","2001-09-10",59.18,43.52,24.00,,
"UKE00105669","2001-09-11",57.38,51.08,0.00,,
"UKE00105669","2001-09-12",53.42,51.26,226.00,,
"UKE00105669","2001-09-13",56.84,48.92,129.00,,
"UKE00105669","2001-09-14",55.94,38.84,24.00,,
"UKE00105669","2001-09-15",54.86,49.46,40.00,,
"UKE00105669","2001-09-16",57.56,46.04,6.00,,
"UKE00105669","2001-09-17",59.72,42.26,0.00,,
"UKE00105669","2001-09-18",59.18,41.54,0.00,,
"UKE00105669","2001-09-19",62.60,47.12,0.00,,
"UKE00105669","2001-09-20",61.52,46.76,1.00,,
"UKE00105669","2001-09-21",58.46,40.82,0.00,,
"UKE00105669","2001-09-22",55.94,40.82,0.00,,
"UKE00105669","2001-09-23",58.64,38.84,0.00,,
"UKE00105669","2001-09-24",59.36,46.22,1.00,,
"UKE00105669","2001-09-25",58.64,45.86,34.00,,
"UKE00105669","2001-09-26",60.98,45.68,98.00,,
"UKE00105669","2001-09-27",67.64,50.72,63.00,,
"UKE00105669","2001-09-28",62.78,54.86,24.00,,
"UKE00105669","2001-09-29",59.72,53.24,2.00,,
"UKE00105669","2001-09-30",59.90,52.52,220.00,,
"UKE00105669","2001-10-01",59.90,51.62,19.00,,
"UKE00105669","2001-10-02",59.54,51.62,33.00,,
"UKE00105669","2001-10-03",59.18,49.64,43.00,,
"UKE00105669","2001-10-04",64.40,50.90,65.00,,
"UKE00105669","2001-10-05",59.18,52.34,96.00,,
"UKE00105669","2001-10-06",53.78,50.54,260.00,,
"UKE00105669","2001-10-07",55.22,47.66,389.00,,
"UKE00105669","2001-10-08",55.40,45.86,234.00,,
"UKE00105669","2001-10-09",56.66,48.20,24.00,,
"UKE00105669","2001-10-10",59.36,49.64,175.00,,
"UKE00105669","2001-10-11",68.54,53.78,19.00,,
"UKE00105669","2001-10-12",65.30,46.40,2.00,,
"UKE00105669","2001-10-13",63.86,52.16,8.00,,
"UKE00105669","2001-10-14",59.18,56.48,70.00,,
"UKE00105669","2001-10-15",57.74,53.78,36.00,,
"UKE00105669","2001-10-16",61.70,42.62,3.00,,
"UKE00105669","2001-10-17",59.54,50.72,84.00,,
"UKE00105669","2001-10-18",57.56,50.90,1.00,,
"UKE00105669","2001-10-19",56.12,49.82,152.00,,
"UKE00105669","2001-10-20",54.14,48.56,2.00,,
"UKE00105669","2001-10-21",58.28,38.66,0.00,,
"UKE00105669","2001-10-22",58.10,39.74,31.00,,
"UKE00105669","2001-10-23",56.84,49.64,93.00,,
"UKE00105669","2001-10-24",55.94,49.46,39.00,,
"UKE00105669","2001-10-25",53.60,50.72,283.00,,
"UKE00105669","2001-10-26",59.72,47.84,105.00,,
"UKE00105669","2001-10-27",57.92,47.48,8.00,,
"UKE00105669","2001-10-28",55.40,38.84,1.00,,
"UKE00105669","2001-10-29",60.98,38.48,4.00,,
"UKE00105669","2001-10-30",50.36,48.56,170.00,,
"UKE00105669","2001-10-31",52.52,42.98,2.00,,
"UKE00105669","2001-11-01",55.40,36.68,1.00,,
"UKE00105669","2001-11-02",55.40,47.12,0.00,,
"UKE00105669","2001-11-03",55.58,41.36,44.00,,
"UKE00105669","2001-11-04",51.62,40.64,14.00,,
"UKE00105669","2001-11-05",51.08,32.54,50.00,,
"UKE00105669","2001-11-06",51.08,42.26,335.00,,
"UKE00105669","2001-11-07",40.64,48.56,616.00,,
"UKE00105669","2001-11-08",41.72,36.50,13.00,,
"UKE00105669","2001-11-09",50.36,28.04,22.00,,
"UKE00105669","2001-11-10",51.44,27.32,63.00,,
"UKE00105669","2001-11-11",51.26,37.76,150.00,,
"UKE00105669","2001-11-12",51.08,46.94,70.00,,
"UKE00105669","2001-11-13",50.36,34.16,14.00,,
"UKE00105669","2001-11-14",50.72,26.78,0.00,,
"UKE00105669","2001-11-15",46.94,31.28,0.00,,
"UKE00105669","2001-11-16",46.76,34.88,0.00,,
"UKE00105669","2001-11-17",44.42,41.54,0.00,,
"UKE00105669","2001-11-18",44.78,41.72,1.00,,
"UKE00105669","2001-11-19",51.26,36.50,9.00,,
"UKE00105669","2001-11-20",51.98,38.12,31.00,,
"UKE00105669","2001-11-21",46.22,44.06,91.00,,
"UKE00105669","2001-11-22",51.62,42.80,2.00,,
"UKE00105669","2001-11-23",53.78,34.70,51.00,,
"UKE00105669","2001-11-24",53.60,39.56,298.00,,
"UKE00105669","2001-11-25",46.76,43.34,54.00,,
"UKE00105669","2001-11-26",47.30,34.16,25.00,,
"UKE00105669","2001-11-27",53.06,35.96,93.00,,
"UKE00105669","2001-11-28",53.78,39.92,492.00,,
"UKE00105669","2001-11-29",56.48,42.62,466.00,,
"UKE00105669","2001-11-30",45.14,51.08,111.00,,
"UKE00105669","2001-12-01",41.36,43.34,22.00,,
"UKE00105669","2001-12-02",48.02,31.64,0.00,,
"UKE00105669","2001-12-03",51.80,35.42,148.00,,
"UKE00105669","2001-12-04",51.98,39.38,93.00,,
"UKE00105669","2001-12-05",49.64,35.96,21.00,,
"UKE00105669","2001-12-06",50.18,35.78,2.00,,
"UKE00105669","2001-12-07",51.62,40.64,0.00,,
"UKE00105669","2001-12-08",43.52,38.66,0.00,,
"UKE00105669","2001-12-09",42.44,35.96,0.00,,
"UKE00105669","2001-12-10",48.92,31.10,0.00,,
"UKE00105669","2001-12-11",51.98,34.52,0.00,,
"UKE00105669","2001-12-12",42.62,35.24,0.00,,
"UKE00105669","2001-12-13",37.40,39.56,0.00,,
"UKE00105669","2001-12-14",38.48,31.82,0.00,,
"UKE00105669","2001-12-15",39.02,27.32,0.00,,
"UKE00105669","2001-12-16",42.26,34.16,0.00,,
"UKE00105669","2001-12-17",42.44,32.54,0.00,,
"UKE00105669","2001-12-18",41.54,35.60,0.00,,
"UKE00105669","2001-12-19",44.96,35.42,72.00,,
"UKE00105669","2001-12-20",44.06,27.14,16.00,,
"UKE00105669","2001-12-21",37.04,27.14,128.00,,
"UKE00105669","2001-12-22",43.52,27.68,0.00,,
"UKE00105669","2001-12-23",44.96,23.18,115.00,,
"UKE00105669","2001-12-24",39.92,28.04,174.00,,
"UKE00105669","2001-12-25",43.34,35.78,16.00,,
"UKE00105669","2001-12-26",44.78,27.14,121.00,,
"UKE00105669","2001-12-27",39.92,33.26,54.00,,
"UKE00105669","2001-12-28",36.68,37.40,31.00,,
"UKE00105669","2001-12-29",38.84,31.10,59.00,,
"UKE00105669","2001-12-30",37.58,27.32,0.00,,
"UKE00105669","2001-12-31",37.22,19.76,0.00,,
"UKE00105669","2002-01-01",37.40,22.28,0.00,,
"UKE00105669","2002-01-02",39.02,26.78,9.00,,
"UKE00105669","2002-01-03",46.94,29.12,0.00,,
"UKE00105669","2002-01-04",45.86,27.32,62.00,,
"UKE00105669","2002-01-05",46.40,28.40,44.00,,
"UKE00105669","2002-01-06",44.78,32.54,5.00,,
"UKE00105669","2002-01-07",40.82,35.06,1.00,,
"UKE00105669","2002-01-08",40.46,39.02,0.00,,
"UKE00105669","2002-01-09",40.28,33.08,0.00,,
"UKE00105669","2002-01-10",45.86,30.02,0.00,,
"UKE00105669","2002-01-11",49.28,26.24,0.00,,
"UKE00105669","2002-01-12",49.28,36.32,0.00,,
"UKE00105669","2002-01-13",48.92,41.90,19.00,,
"UKE00105669","2002-01-14",42.98,44.06,48.00,,
"UKE00105669","2002-01-15",46.94,37.58,17.00,,
"UKE00105669","2002-01-16",46.40,34.52,94.00,,
"UKE00105669","2002-01-17",46.58,42.62,27.00,,
"UKE00105669","2002-01-18",48.20,31.10,38.00,,
"UKE00105669","2002-01-19",51.98,40.10,79.00,,
"UKE00105669","2002-01-20",50.72,41.72,208.00,,
"UKE00105669","2002-01-21",47.12,46.22,132.00,,
"UKE00105669","2002-01-22",48.20,39.38,51.00,,
"UKE00105669","2002-01-23",42.62,39.20,206.00,,
"UKE00105669","2002-01-24",51.62,40.82,22.00,,
"UKE00105669","2002-01-25",51.62,31.10,323.00,,
"UKE00105669","2002-01-26",52.70,40.82,2.00,,
"UKE00105669","2002-01-27",49.64,40.64,256.00,,
"UKE00105669","2002-01-28",50.72,38.66,0.00,,
"UKE00105669","2002-01-29",47.12,42.26,141.00,,
"UKE00105669","2002-01-30",50.54,46.04,77.00,,
"UKE00105669","2002-01-31",51.44,36.50,255.00,,
"UKE00105669","2002-02-01",50.72,38.66,246.00,,
"UKE00105669","2002-02-02",47.30,46.04,130.00,,
"UKE00105669","2002-02-03",51.44,43.34,35.00,,
"UKE00105669","2002-02-04",48.20,35.96,150.00,,
"UKE00105669","2002-02-05",42.08,40.64,80.00,,
"UKE00105669","2002-02-06",50.72,39.38,32.00,,
"UKE00105669","2002-02-07",50.90,31.10,174.00,,
"UKE00105669","2002-02-08",46.40,41.36,91.00,,
"UKE00105669","2002-02-09",51.26,41.00,29.00,,
"UKE00105669","2002-02-10",51.44,41.00,543.00,,
"UKE00105669","2002-02-11",48.20,44.96,10.00,,
"UKE00105669","2002-02-12",44.42,46.04,9.00,,
"UKE00105669","2002-02-13",43.70,40.82,3.00,,
"UKE00105669","2002-02-14",49.64,32.18,0.00,,
"UKE00105669","2002-02-15",49.28,27.14,0.00,,
"UKE00105669","2002-02-16",44.42,29.48,1.00,,
"UKE00105669","2002-02-17",44.24,29.66,62.00,,
"UKE00105669","2002-02-18",47.84,35.60,32.00,,
"UKE00105669","2002-02-19",44.24,38.84,741.00,,
"UKE00105669","2002-02-20",48.02,40.28,18.00,,
"UKE00105669","2002-02-21",47.84,29.12,279.00,,
"UKE00105669","2002-02-22",39.20,34.34,42.00,,
"UKE00105669","2002-02-23",47.84,34.34,41.00,,
"UKE00105669","2002-02-24",49.46,34.52,708.00,,
"UKE00105669","2002-02-25",47.66,35.42,431.00,,
"UKE00105669","2002-02-26",44.78,42.44,62.00,,
"UKE00105669","2002-02-27",46.22,33.08,64.00,,
"UKE00105669","2002-02-28",44.06,35.78,0.00,,
"UKE00105669","2002-03-01",42.44,29.66,0.00,,
"UKE00105669","2002-03-02",44.06,25.16,10.00,,
"UKE00105669","2002-03-03",42.98,35.96,1.00,,
"UKE00105669","2002-03-04",45.86,39.20,13.00,,
"UKE00105669","2002-03-05",48.20,37.58,128.00,,
"UKE00105669","2002-03-06",50.00,39.20,56.00,,
"UKE00105669","2002-03-07",47.84,44.60,0.00,,
"UKE00105669","2002-03-08",46.04,45.32,83.00,,
"UKE00105669","2002-03-09",46.76,35.06,11.00,,
"UKE00105669","2002-03-10",46.76,32.54,79.00,,
"UKE00105669","2002-03-11",45.86,37.76,46.00,,
"UKE00105669","2002-03-12",44.96,30.92,0.00,,
"UKE00105669","2002-03-13",43.52,36.68,0.00,,
"UKE00105669","2002-03-14",48.74,32.00,42.00,,
"UKE00105669","2002-03-15",52.52,34.34,44.00,,
"UKE00105669","2002-03-16",52.16,39.74,0.00,,
"UKE00105669","2002-03-17",46.76,41.90,42.00,,
"UKE00105669","2002-03-18",49.64,41.36,98.00,,
"UKE00105669","2002-03-19",50.36,40.10,67.00,,
"UKE00105669","2002-03-20",48.74,42.44,72.00,,
"UKE00105669","2002-03-21",50.72,45.68,0.00,,
"UKE00105669","2002-03-22",54.32,45.32,0.00,,
"UKE00105669","2002-03-23",54.86,43.88,0.00,,
"UKE00105669","2002-03-24",50.36,41.54,0.00,,
"UKE00105669","2002-03-25",54.32,39.56,0.00,,
"UKE00105669","2002-03-26",56.66,30.92,0.00,,
"UKE00105669","2002-03-27",53.96,30.56,0.00,,
"UKE00105669","2002-03-28",58.46,34.52,0.00,,
"UKE00105669","2002-03-29",56.84,32.18,0.00,,
"UKE00105669","2002-03-30",50.72,33.08,69.00,,
"UKE00105669","2002-03-31",52.70,43.34,27.00,,
"UKE00105669","2002-04-01",54.86,45.68,50.00,,
"UKE00105669","2002-04-02",53.06,33.08,39.00,,
"UKE00105669","2002-04-03",59.18,41.72,38.00,,
"UKE00105669","2002-04-04",59.90,37.04,2.00,,
"UKE00105669","2002-04-05",56.12,41.72,0.00,,
"UKE00105669","2002-04-06",54.50,43.16,0.00,,
"UKE00105669","2002-04-07",56.12,38.30,0.00,,
"UKE00105669","2002-04-08",55.94,32.90,0.00,,
"UKE00105669","2002-04-09",50.72,35.24,0.00,,
"UKE00105669","2002-04-10",50.36,39.38,0.00,,
"UKE00105669","2002-04-11",49.46,33.26,0.00,,
"UKE00105669","2002-04-12",50.36,33.62,0.00,,
"UKE00105669","2002-04-13",47.12,27.86,22.00,,
"UKE00105669","2002-04-14",51.26,34.88,16.00,,
"UKE00105669","2002-04-15",54.32,28.76,0.00,,
"UKE00105669","2002-04-16",55.94,33.08,0.00,,
"UKE00105669","2002-04-17",48.92,37.94,68.00,,
"UKE00105669","2002-04-18",54.86,38.48,72.00,,
"UKE00105669","2002-04-19",54.32,40.10,29.00,,
"UKE00105669","2002-04-20",60.98,41.54,29.00,,
"UKE00105669","2002-04-21",58.64,46.76,10.00,,
"UKE00105669","2002-04-22",53.24,48.92,0.00,,
"UKE00105669","2002-04-23",63.32,48.74,0.00,,
"UKE00105669","2002-04-24",60.08,43.34,20.00,,
"UKE00105669","2002-04-25",53.96,44.24,178.00,,
"UKE00105669","2002-04-26",49.64,41.72,75.00,,
"UKE00105669","2002-04-27",49.64,40.46,254.00,,
"UKE00105669","2002-04-28",49.28,40.46,135.00,,
"UKE00105669","2002-04-29",52.88,37.58,164.00,,
"UKE00105669","2002-04-30",51.44,39.74,138.00,,
"UKE00105669","2002-05-01",52.52,38.84,0.00,,
"UKE00105669","2002-05-02",51.44,40.28,8.00,,
"UKE00105669","2002-05-03",56.48,35.60,0.00,,
"UKE00105669","2002-05-04",56.84,34.88,14.00,,
"UKE00105669","2002-05-05",56.84,34.88,0.00,,
"UKE00105669","2002-05-06",55.04,42.44,0.00,,
"UKE00105669","2002-05-07",57.56,42.08,0.00,,
"UKE00105669","2002-05-08",56.84,46.04,0.00,,
"UKE00105669","2002-05-09",53.24,45.14,0.00,,
"UKE00105669","2002-05-10",54.68,43.52,0.00,,
"UKE00105669","2002-05-11",61.52,41.72,0.00,,
"UKE00105669","2002-05-12",55.76,32.72,10.00,,
"UKE00105669","2002-05-13",55.40,47.12,82.00,,
"UKE00105669","2002-05-14",62.60,46.04,46.00,,
"UKE00105669","2002-05-15",72.32,47.48,0.00,,